Flag for U.S.A. Weather past 2 weeks in Hudson, Wisconsin, U.S.A.

Now
11 °F

Clear.


Feels Like: -3 °F
Forecast: -3 / 17 °F
Wind: 12 mph from Northeast

Location: St. Paul Downtown Holman Field

Current Time: Feb 1, 2015 at 8:18:34 PM

Latest Report: Feb 1, 2015 at 7:53 PM


Visibility: 10 mi

Pressure: 30.31 "Hg

Humidity: 53%

Dew point: -3 °F

Location of HudsonLocation

Historic Weather in Hudson — Graph

°F

Hudson temperature yesterday

Maximum temperature yesterday: 29 °F (at 10:53 AM)
Minimum temperature yesterday: 21 °F (at 6:53 AM)
Average temperature yesterday: 25 °F

Past Weeks' High & Low Weather Summary

 TemperatureHumidityPressure
High44 °F (Jan 26, 2:53 PM)100% (Jan 24, 6:53 AM)30.60 "Hg (Jan 24, 6:53 AM)
Low11 °F (Jan 30, 4:53 AM)51% (Feb 1, 3:53 PM)29.60 "Hg (Jan 24, 2:53 PM)
Average28 °F77%30.06 "Hg
* Reported Jan 17 6:53 PM — Feb 1 6:53 PM, Hudson, Weather by CustomWeather, © 2014

Note: Actual official high and low records may vary slightly from our data, if they occured in-between our weather recording intervals... More about our weather records

Advertising

Hudson weather history for previous 24 hours

 ConditionsComfort  
Time TempWeatherWind HumidityBarometerVisibility
6:53 PM
Feb 1
13 °FClear.14 mph56%30.30 "Hg10 mi
5:53 PM14 °FClear.17 mph58%30.29 "Hg10 mi
4:53 PM16 °FSunny.12 mph53%30.27 "Hg10 mi
3:53 PM17 °FSunny.17 mph51%30.27 "Hg10 mi
2:53 PM17 °FPassing clouds.16 mph54%30.26 "Hg10 mi
1:53 PM17 °FSunny.17 mph54%30.26 "Hg10 mi
12:53 PM16 °FSunny.21 mph56%30.28 "Hg10 mi
11:53 AM15 °FSunny.18 mph53%30.30 "Hg10 mi
10:53 AM15 °FScattered clouds.14 mph58%30.30 "Hg10 mi
9:53 AM13 °FOvercast.14 mph61%30.31 "Hg10 mi
8:53 AM13 °FOvercast.16 mph61%30.30 "Hg10 mi
7:53 AM14 °FLight snow. Overcast.13 mph67%30.29 "Hg5 mi
6:53 AM15 °FOvercast.18 mph64%30.26 "Hg10 mi
5:53 AM15 °FLight snow. Overcast.13 mph74%30.24 "Hg4 mi
4:53 AM16 °FLight snow. Overcast.9 mph74%30.24 "Hg4 mi
3:53 AM17 °FLight snow. Overcast.7 mph74%30.24 "Hg3 mi
2:53 AM17 °FLight snow. Overcast.12 mph74%30.25 "Hg2 mi
1:53 AM19 °FMostly cloudy.16 mph62%30.25 "Hg10 mi
12:53 AM20 °FMostly cloudy.18 mph62%30.25 "Hg10 mi
11:53 PM
Jan 31
21 °FOvercast.14 mph60%30.26 "Hg10 mi
10:53 PM23 °FOvercast.15 mph60%30.25 "Hg10 mi
9:53 PM25 °FOvercast.13 mph58%30.24 "Hg10 mi
8:53 PM26 °FOvercast.12 mph57%30.23 "Hg10 mi
Weather by CustomWeather, © 2014

See weather overviewHow to use our weather pages